Kodiak, AK

1:45 AM AKDT on June 25, 2017 (GMT -0800)
Kodiak

Weather History for PADQ - May, 2014

Change the Weather History Date:

Thursday, May 22, 2014

  Actual Average Record
Temperature  
Mean Temperature 47 °F 45 °F  
Max Temperature 58 °F 51 °F 69 °F (1991)
Min Temperature 35 °F 40 °F 30 °F (1985)
Degree Days  
Heating Degree Days 18 20  
Month to date heating degree days 320 474  
Since 1 July heating degree days 7343 8166  
Cooling Degree Days 0 0  
Month to date cooling degree days 4 0  
Year to date cooling degree days 4 0  
Moisture  
Dew Point 34 °F    
Average Humidity 0    
Maximum Humidity 0    
Minimum Humidity 0    
Precipitation  
Precipitation 0.00 in 0.19 in 2.70 in (2007)
Month to date precipitation 0.31 3.86  
Year to date precipitation 32.65 29.63  
Snow  
Snow 0.00 in 0.00 in - ()
Month to date snowfall 0.0 0.2  
Since 1 July snowfall 68.9  
Snow Depth 0.00 in    
Sea Level Pressure  
Sea Level Pressure 29.81 in    
Wind  
Wind Speed 4 mph (NNW)    
Max Wind Speed 9 mph    
Max Gust Speed 12 mph    
Visibility 10 miles    
Events      
T = Trace of Precipitation, MM = Missing Value Source: NWS Daily Summary

Daily Weather History Graph

Daily Weather History Graph

Search for Another Location

Airport or City:

Trip Planner

Search our weather history database for the weather conditions in past years. The results will help you decide how hot, cold, wet, or windy it might be!

Date:

Astronomy

May. 22, 2014 Rise Set
Actual Time 5:33 AM AKDT 10:41 PM AKDT
Civil Twilight 4:34 AM AKDT 11:40 PM AKDT
Nautical Twilight 2:39 AM AKDT 1:34 AM AKDT
Astronomical Twilight Sun does not set Sun does not set
Moon 3:23 AM AKDT (5/22) 3:21 PM AKDT (5/22)
Length of Visible Light 19h 06m
Length of Day
17h 07m
Waning Crescent, 36% of the Moon is Illuminated
May 22
Waning Crescent
May 28
New
Jun 5
First Quarter
Jun 12
Full
Jun 19
Last Quarter

Hourly Weather History & Observations

Time (AKDT) Temp. Windchill Dew Point Humidity Pressure Visibility Wind Dir Wind Speed Gust Speed Precip Events Conditions
12:53 AM 41.0 °F 36.4 °F 35.6 °F 81% 29.86 in 10.0 mi West 6.9 mph - N/A   Mostly Cloudy
1:53 AM 39.0 °F 34.8 °F 35.1 °F 86% 29.86 in 10.0 mi West 5.8 mph - N/A   Clear
2:53 AM 37.4 °F 33.8 °F 35.6 °F 93% 29.85 in 10.0 mi West 4.6 mph - N/A   Mostly Cloudy
3:53 AM 35.6 °F 29.9 °F 33.8 °F 93% 29.85 in 10.0 mi West 6.9 mph - N/A   Mostly Cloudy
4:53 AM 37.4 °F 34.9 °F 35.6 °F 93% 29.84 in 10.0 mi West 3.5 mph - N/A   Mostly Cloudy
5:53 AM 35.6 °F 31.7 °F 32.0 °F 87% 29.84 in 10.0 mi West 4.6 mph - N/A   Mostly Cloudy
6:53 AM 37.4 °F 34.9 °F 35.6 °F 93% 29.83 in 10.0 mi WSW 3.5 mph - N/A   Mostly Cloudy
7:53 AM 41.0 °F - 35.6 °F 81% 29.83 in 10.0 mi Calm Calm - N/A   Mostly Cloudy
8:53 AM 45.0 °F - 37.9 °F 76% 29.82 in 10.0 mi Calm Calm - N/A   Mostly Cloudy
9:53 AM 46.4 °F 44.3 °F 37.4 °F 71% 29.81 in 10.0 mi ENE 4.6 mph - N/A   Partly Cloudy
10:53 AM 48.2 °F - 39.2 °F 71% 29.80 in 10.0 mi NE 5.8 mph - N/A   Partly Cloudy
11:53 AM 50.0 °F - 43.0 °F 77% 29.80 in 10.0 mi ENE 5.8 mph - N/A   Clear
12:53 PM 51.1 °F - 42.1 °F 71% 29.80 in 10.0 mi ENE 5.8 mph - N/A   Clear
1:53 PM 54.0 °F - 37.9 °F 55% 29.79 in 10.0 mi East 5.8 mph - N/A   Clear
2:53 PM 54.0 °F - 34.0 °F 47% 29.79 in 10.0 mi East 8.1 mph - N/A   Mostly Cloudy
3:53 PM 54.0 °F - 36.0 °F 51% 29.78 in 10.0 mi NE 3.5 mph - N/A   Mostly Cloudy
4:53 PM 57.0 °F - 32.0 °F 39% 29.78 in 10.0 mi ENE 3.5 mph - N/A   Mostly Cloudy
5:53 PM 57.0 °F - 33.1 °F 40% 29.77 in 10.0 mi Calm Calm - N/A   Mostly Cloudy
6:53 PM 57.0 °F - 26.1 °F 30% 29.77 in 10.0 mi East 3.5 mph - N/A   Mostly Cloudy
7:53 PM 57.0 °F - 24.1 °F 28% 29.77 in 10.0 mi Calm Calm - N/A   Mostly Cloudy
8:53 PM 57.0 °F - 28.0 °F 33% 29.78 in 10.0 mi WNW 8.1 mph - N/A   Mostly Cloudy
9:53 PM 55.9 °F - 30.0 °F 37% 29.78 in 10.0 mi NW 8.1 mph - N/A   Mostly Cloudy
10:53 PM 53.1 °F - 27.0 °F 37% 29.79 in 10.0 mi NW 8.1 mph - N/A   Partly Cloudy
11:53 PM 48.9 °F - 15.1 °F 26% 29.80 in 10.0 mi WNW 5.8 mph - N/A   Scattered Clouds